Participated 2 times
Between 1995 and 1996
Dirk Baldinger, Germany
Tour de France 2026 starts from Edinburgh, Scotland in

Stats and Facts from
Tour de France.

2026   2025   2024   2023  2022  2021  2020  2019   2018  2017   2016   2015  2014  2013   2012   2011  2010   2009   2008   2007   2006   2005   2004   2003   2002   2001   2000   1999   1998   1997  1996   1995   1994   1993   1992  1991   1990   1989   1988   1987   1986   1985   1984   1983  1982  1981   1980   1979  1978  1977   1976  1975  1974  1973   1972   1971   1970  1969   1968   1967   1966   1965  1964  1963   1962   1961   1960   1959   1958   1957  1956   1955   1954   1953   1952  1951  1950  1949   1948  1947  1939   1938   1937   1936   1935   1934   1933  1932   1931   1930  1929   1928   1927   1926  1925  1924  1923   1922   1921   1920   1919  1914   1913   1912   1911   1910  1909   1908   1907   1906  1905  1904   1903 

Tourstats
Sitemap

After stage 21 - 2026:
 16451 starters.
  5513 different riders.
  689 teams.
  2419 stages.
  470 restdays.
  469752.50 km.
  5946 abandoned riders.

Click map for 2001 route.
Facts from Tour de France 2001
  |   Stages.  |   Stage winners.  |   Days in jerseys.  |   Teams.  |   All riders.  |   All riders by age.  |   All riders from.  |  

  |   Rookies.  |   Withdrawls.  |   Average speed.  |   GC.  |   Polka  |   Green  |   White  |   Summits. (In tour)  |   Miscellaneous.  |  

Stage 13 on July 21st. 2001
Pick a stage:  Pro  1  2  3  4  5  6  7  8  9  10  11  12  13  14  15  16  17  18  19  20  

After stage 13:    Lance Armstrong  
  FoixSaint-Lary-Soulan | Dist: 194.00km. | Winner: Lance Armstrong

Podium
2  Col de Portet-d'Aspet Laurent Rouxafter71.00 km.

1  Col de Menté/Mourtis Laurent Jalabertafter89.00 km.

1  Col du Portillon Laurent Jalabertafter126.00 km.

1  Col de Peyresourde Roberto Laisekaafter150.00 km.

1  Col de Val Louron-Azet Laurent Jalabertafter170.00 km.

HC  Pla d'Adet Lance Armstrongafter194.00 km.


Average speed for all riders in stage:  31,445 km./hr.

1
 Lance Armstrong  US Postal Service05h 44' 22"=33,801  km/h

2
 Jan Ullrich  Deutsche Telekom05h 45' 22"+  00:01:00 =33,703  km/h

3
 Joseba Beloki  O.N.C.E.-Eroski05h 46' 08"+  00:01:46 =33,629  km/h

4  Roberto Heras  US Postal Service05h 46' 08"+  00:01:46 =33,629  km/h

5  Stefano Garzelli  Mapei-Quick Step05h 46' 51"+  00:02:29 =33,559  km/h

6  Igor González De Galdeano  O.N.C.E.-Eroski05h 47' 14"+  00:02:52 =33,522  km/h

7  Laurent Jalabert  CSC-Tiscali05h 47' 34"+  00:03:12 =33,490  km/h

8  Marcos Serrano  O.N.C.E.-Eroski05h 47' 37"+  00:03:15 =33,485  km/h

9  Iñigo Chaurreau  Euskaltel-Euskadi05h 47' 47"+  00:03:25 =33,469  km/h

10  Andrei Kivilev  Cofidis Credit Par Telephone05h 48' 24"+  00:04:02 =33,410  km/h

11  Santiago Botero  Kelme-Costa Blanca05h 49' 08"+  00:04:46 =33,340  km/h

12  Óscar Sevilla  Kelme-Costa Blanca05h 50' 08"+  00:05:46 =33,244  km/h

13  Francisco Mancebo  ibanesto.com05h 50' 25"+  00:06:03 =33,218  km/h

14  Alexandre Botcharov  AG2R-Decathlon05h 50' 25"+  00:06:03 =33,218  km/h

15  Didier Rous  Bonjour05h 51' 21"+  00:06:59 =33,129  km/h

16  Alexandre Vinokourov  Deutsche Telekom05h 51' 21"+  00:06:59 =33,129  km/h

17  Michael Boogerd  Rabobank05h 51' 36"+  00:07:14 =33,106  km/h

18  Daniel Atienza  Cofidis Credit Par Telephone05h 51' 51"+  00:07:29 =33,082  km/h

19  José-Luis Rubiera  US Postal Service05h 52' 04"+  00:07:42 =33,062  km/h

20  Giuseppe Guerini  Deutsche Telekom05h 53' 21"+  00:08:59 =32,942  km/h

21  Leonardo Piepoli  ibanesto.com05h 55' 01"+  00:10:39 =32,787  km/h

22  Thomasz Broźyna  ibanesto.com05h 55' 21"+  00:10:59 =32,756  km/h

23  Felix Garcia Casas  Festina05h 56' 01"+  00:11:39 =32,695  km/h

24  Michele Bartoli  Mapei-Quick Step05h 56' 01"+  00:11:39 =32,695  km/h

25  David Etxebarria  Euskaltel-Euskadi05h 56' 01"+  00:11:39 =32,695  km/h

26  Mario Aerts  Lotto-Adecco05h 56' 01"+  00:11:39 =32,695  km/h

27  David Moncoutié  Cofidis Credit Par Telephone05h 56' 16"+  00:11:54 =32,672  km/h

28  Kevin Livingston  Deutsche Telekom05h 57' 04"+  00:12:42 =32,599  km/h

29  Denis Menchov  ibanesto.com05h 57' 32"+  00:13:10 =32,556  km/h

30  Stive Vermaut  Lotto-Adecco05h 57' 32"+  00:13:10 =32,556  km/h

31  François Simon  Bonjour05h 57' 43"+  00:13:21 =32,540  km/h

32  Stéphane Goubert  Jean Delatour05h 57' 49"+  00:13:27 =32,531  km/h

33  Javier Pascual  ibanesto.com05h 58' 06"+  00:13:44 =32,505  km/h

34  Marco Pinotti  Lampre-Daikin05h 59' 13"+  00:14:51 =32,404  km/h

35  Luis Pérez Rodriguez  Festina05h 59' 15"+  00:14:53 =32,401  km/h

36  Gilles Bouvard  Jean Delatour05h 59' 45"+  00:15:23 =32,356  km/h

37  Javier Rodriguez  Kelme-Costa Blanca06h 00' 35"+  00:16:13 =32,281  km/h

38  Alberto Lopez  Euskaltel-Euskadi06h 00' 36"+  00:16:14 =32,280  km/h

39  Axel Merckx  Domo-Farm Frites06h 01' 47"+  00:17:25 =32,174  km/h

40  Jean-Cyril Robin  Bonjour06h 02' 04"+  00:17:42 =32,149  km/h

41  Walter Bénéteau  Bonjour06h 02' 12"+  00:17:50 =32,137  km/h

42  Laurent Roux  Jean Delatour06h 02' 21"+  00:17:59 =32,124  km/h

43  Haimar  Zubeldía  Euskaltel-Euskadi06h 04' 31"+  00:20:09 =31,933  km/h

44  Bobby Julich  Credit Agricole06h 04' 31"+  00:20:09 =31,933  km/h

45  Laurent Brochard  Jean Delatour06h 04' 31"+  00:20:09 =31,933  km/h

46  Daniele Nardello  Mapei-Quick Step06h 04' 31"+  00:20:09 =31,933  km/h

47  Patrice Halgand  Jean Delatour06h 04' 31"+  00:20:09 =31,933  km/h

48  Guido Trentin  Cofidis Credit Par Telephone06h 04' 31"+  00:20:09 =31,933  km/h

49  Grischa Niermann  Rabobank06h 05' 19"+  00:20:57 =31,863  km/h

50  Sven Montgomery  Francaise Des Jeux06h 05' 19"+  00:20:57 =31,863  km/h

51  Jens Heppner  Deutsche Telekom06h 07' 06"+  00:22:44 =31,708  km/h

52  Nicki Sørensen  CSC-Tiscali06h 07' 06"+  00:22:44 =31,708  km/h

53  Udo Bölts  Deutsche Telekom06h 07' 06"+  00:22:44 =31,708  km/h

54  Carlos Sastre  O.N.C.E.-Eroski06h 07' 25"+  00:23:03 =31,681  km/h

55  Christophe Oriol  Jean Delatour06h 08' 54"+  00:24:32 =31,553  km/h

56  Paolo Bettini  Mapei-Quick Step06h 09' 13"+  00:24:51 =31,526  km/h

57  Fabio Baldato  Fassa Bortolo06h 09' 13"+  00:24:51 =31,526  km/h

58  Andréas  Klöden  Deutsche Telekom06h 09' 50"+  00:25:28 =31,474  km/h

59  Eladio Jimenez  ibanesto.com06h 09' 50"+  00:25:28 =31,474  km/h

60  Matteo Tosatto  Fassa Bortolo06h 10' 05"+  00:25:43 =31,452  km/h

61  Guennadi Mikhailov  Lotto-Adecco06h 10' 15"+  00:25:53 =31,438  km/h

62  Pascal Lino  Festina06h 13' 09"+  00:28:47 =31,194  km/h

63  Michael Blaudzun  CSC-Tiscali06h 13' 09"+  00:28:47 =31,194  km/h

64  Tyler Hamilton  US Postal Service06h 13' 09"+  00:28:47 =31,194  km/h

65  Wladimir Belli  Fassa Bortolo06h 13' 09"+  00:28:47 =31,194  km/h

66  José Garcia Acosta  ibanesto.com06h 13' 09"+  00:28:47 =31,194  km/h

67  Angel Castresana  Euskaltel-Euskadi06h 13' 09"+  00:28:47 =31,194  km/h

68  Daniel Schnider  Francaise Des Jeux06h 13' 09"+  00:28:47 =31,194  km/h

69  Piotr Wadecki  Domo-Farm Frites06h 13' 09"+  00:28:47 =31,194  km/h

70  George Hincapie  US Postal Service06h 13' 09"+  00:28:47 =31,194  km/h

71  Iñigo Cuesta  Cofidis Credit Par Telephone06h 13' 09"+  00:28:47 =31,194  km/h

72  Nicolas Vogondy  Francaise Des Jeux06h 13' 09"+  00:28:47 =31,194  km/h

73  Viatcheslav Ekimov  US Postal Service06h 13' 09"+  00:28:47 =31,194  km/h

74  Jörg Jaksche  O.N.C.E.-Eroski06h 13' 09"+  00:28:47 =31,194  km/h

75  Mikel Pradera  O.N.C.E.-Eroski06h 13' 09"+  00:28:47 =31,194  km/h

76  Jakob Piil  CSC-Tiscali06h 13' 09"+  00:28:47 =31,194  km/h

77  Sylvain Chavanel  Bonjour06h 13' 09"+  00:28:47 =31,194  km/h

78  Roberto Laiseka  Euskaltel-Euskadi06h 13' 09"+  00:28:47 =31,194  km/h

79  Unai Etxebarria  Euskaltel-Euskadi06h 13' 09"+  00:28:47 =31,194  km/h

80  Oscar Pozzi  Fassa Bortolo06h 14' 20"+  00:29:58 =31,095  km/h

81  Antonio Tauler  Kelme-Costa Blanca06h 15' 00"+  00:30:38 =31,040  km/h

82  Nicolas Jalabert  CSC-Tiscali06h 15' 22"+  00:31:00 =31,010  km/h

83  Sébastien Demarbaix  AG2R-Decathlon06h 18' 06"+  00:33:44 =30,786  km/h

84  Serge Baguet  Lotto-Adecco06h 18' 06"+  00:33:44 =30,786  km/h

85  Marc Lotz  Rabobank06h 18' 06"+  00:33:44 =30,786  km/h

86  Eddy Seigneur  Jean Delatour06h 18' 06"+  00:33:44 =30,786  km/h

87  Rolf Sørensen  CSC-Tiscali06h 19' 34"+  00:35:12 =30,667  km/h

88  Erik Zabel  Deutsche Telekom06h 19' 34"+  00:35:12 =30,667  km/h

89  Jens Voigt  Credit Agricole06h 19' 34"+  00:35:12 =30,667  km/h

90  Massimiliano Lelli  Cofidis Credit Par Telephone06h 19' 34"+  00:35:12 =30,667  km/h

91  Rik Verbrugghe  Lotto-Adecco06h 19' 34"+  00:35:12 =30,667  km/h

92  Alexei Sivakov  BigMat-Auber 9306h 19' 34"+  00:35:12 =30,667  km/h

93  Olivier Perraudeau  Bonjour06h 19' 34"+  00:35:12 =30,667  km/h

94  José Ivan Gutierrez  O.N.C.E.-Eroski06h 19' 34"+  00:35:12 =30,667  km/h

95  Jon Odriozola  ibanesto.com06h 19' 34"+  00:35:12 =30,667  km/h

96  Pascal Chanteur  Festina06h 19' 34"+  00:35:12 =30,667  km/h

97  Paul Van Hyfte  Lotto-Adecco06h 19' 34"+  00:35:12 =30,667  km/h

98  Raivis  Belohvoščiks  Lampre-Daikin06h 19' 34"+  00:35:12 =30,667  km/h

99  Stéphane Heulot  BigMat-Auber 9306h 19' 34"+  00:35:12 =30,667  km/h

100  José Angel Vidal  Kelme-Costa Blanca06h 19' 34"+  00:35:12 =30,667  km/h

101  José Enrique Gutierrez  Kelme-Costa Blanca06h 19' 34"+  00:35:12 =30,667  km/h

102  Gilles Maignan  AG2R-Decathlon06h 19' 34"+  00:35:12 =30,667  km/h

103  Benoit Salmon  AG2R-Decathlon06h 19' 34"+  00:35:12 =30,667  km/h

104  Jonathan Vaughters  Credit Agricole06h 19' 34"+  00:35:12 =30,667  km/h

105  Servais Knaven  Domo-Farm Frites06h 19' 34"+  00:35:12 =30,667  km/h

106  Marco Serpellini  Lampre-Daikin06h 19' 34"+  00:35:12 =30,667  km/h

107  Geert Verheyen  Rabobank06h 19' 34"+  00:35:12 =30,667  km/h

108  Marcelino Garcia  CSC-Tiscali06h 19' 34"+  00:35:12 =30,667  km/h

109  Thierry Gouvenou  BigMat-Auber 9306h 19' 34"+  00:35:12 =30,667  km/h

110  Félix Cárdenas  Kelme-Costa Blanca06h 19' 34"+  00:35:12 =30,667  km/h

111  Maarten Den Bakker  Rabobank06h 19' 34"+  00:35:12 =30,667  km/h

112  Florent Brard  Festina06h 19' 34"+  00:35:12 =30,667  km/h

113  Franck Renier  Bonjour06h 19' 34"+  00:35:12 =30,667  km/h

114  Franck Bouyer  Bonjour06h 19' 34"+  00:35:12 =30,667  km/h

115  Guillaume Auger  BigMat-Auber 9306h 19' 34"+  00:35:12 =30,667  km/h

116  Ján Svorada  Lampre-Daikin06h 19' 34"+  00:35:12 =30,667  km/h

117  Álvaro Gonzalez De Galdeano  O.N.C.E.-Eroski06h 19' 34"+  00:35:12 =30,667  km/h

118  Francisco Cerezo  CSC-Tiscali06h 19' 34"+  00:35:12 =30,667  km/h

119  Steffen Kjærgaard  US Postal Service06h 19' 34"+  00:35:12 =30,667  km/h

120  Ludovic Turpin  AG2R-Decathlon06h 19' 34"+  00:35:12 =30,667  km/h

121  Nicola Loda  Fassa Bortolo06h 19' 34"+  00:35:12 =30,667  km/h

122  Romāns Vainšteins  Domo-Farm Frites06h 19' 34"+  00:35:12 =30,667  km/h

123  Damien Nazon  Bonjour06h 19' 34"+  00:35:12 =30,667  km/h

124  Jérôme Bernard  Jean Delatour06h 19' 34"+  00:35:12 =30,667  km/h

125  Sébastien Talabardon  BigMat-Auber 9306h 19' 34"+  00:35:12 =30,667  km/h

126  Matteo Frutti  Lampre-Daikin06h 19' 34"+  00:35:12 =30,667  km/h

127  Emmanuel Magnien  Francaise Des Jeux06h 19' 34"+  00:35:12 =30,667  km/h

128  Johan Verstrepen  Lampre-Daikin06h 19' 34"+  00:35:12 =30,667  km/h

129  Anthony Morin  Credit Agricole06h 19' 34"+  00:35:12 =30,667  km/h

130  Marc Wauters  Rabobank06h 19' 34"+  00:35:12 =30,667  km/h

131  Rubens Bertogliati  Lampre-Daikin06h 19' 34"+  00:35:12 =30,667  km/h

132  Enrico Cassani  Domo-Farm Frites06h 19' 34"+  00:35:12 =30,667  km/h

133  Sébastien Hinault  Credit Agricole06h 19' 34"+  00:35:12 =30,667  km/h

134  Davide Bramati  Mapei-Quick Step06h 19' 34"+  00:35:12 =30,667  km/h

135  Erik Dekker  Rabobank06h 19' 34"+  00:35:12 =30,667  km/h

136  Bradley McGee  Francaise Des Jeux06h 19' 34"+  00:35:12 =30,667  km/h

137  Victor Hugo Peña  US Postal Service06h 19' 34"+  00:35:12 =30,667  km/h

138  Christophe Mengin  Francaise Des Jeux06h 19' 34"+  00:35:12 =30,667  km/h

139  Christophe  Agnolutto  AG2R-Decathlon06h 19' 34"+  00:35:12 =30,667  km/h

140  Frédéric Guesdon  Francaise Des Jeux06h 19' 34"+  00:35:12 =30,667  km/h

141  Frédéric Bessy  Credit Agricole06h 19' 34"+  00:35:12 =30,667  km/h

142  Stuart O'Grady  Credit Agricole06h 19' 34"+  00:35:12 =30,667  km/h

143  Christophe Capelle  BigMat-Auber 9306h 19' 34"+  00:35:12 =30,667  km/h

144  Max van Heeswijk  Domo-Farm Frites06h 19' 34"+  00:35:12 =30,667  km/h

145  Nico Mattan  Cofidis Credit Par Telephone06h 19' 34"+  00:35:12 =30,667  km/h

146  Sven Teutenberg  Festina06h 19' 34"+  00:35:12 =30,667  km/h

147  Xavier Jan  BigMat-Auber 9306h 20' 11"+  00:35:49 =30,617  km/h

148  Ludovic Auger  BigMat-Auber 9306h 20' 11"+  00:35:49 =30,617  km/h

149  Jacky Durand  Francaise Des Jeux06h 20' 11"+  00:35:49 =30,617  km/h

150  Stéphane  Berges  AG2R-Decathlon06h 20' 15"+  00:35:53 =30,611  km/h

151  Alessandro Petacchi  Fassa Bortolo06h 20' 27"+  00:36:05 =30,595  km/h

152  Christopher Jenner  Credit Agricole06h 23' 56"+  00:39:34 =30,318  km/h

153  Jimmy Casper  Francaise Des Jeux06h 25' 26"+  00:41:04 =30,200  km/h


Withdrawls: 7
 RiderTeamReason
18   Steffen Wesemann Deutsche TelekomDid not finish
87   Bart Leysen Mapei-Quick StepDid not finish
92   Santiago Blanco ibanesto.comDid not finish
174   Ludo Dierckxsens Lampre-DaikinDid not finish
176   Robert Hunter Lampre-DaikinDid not finish
196   Johan Museeuw Domo-Farm FritesDid not finish
197   Fred Rodriguez Domo-Farm FritesDid not finish
Todays birthdays.

1879 • Henri Menez
1884 • Auguste Pierron
1890 • Lodewijk Budts
1899 • Fernand Braeckman
1905 • Alfred Hamerlinck
1919 • Briek Schotte
1920 • Pierre Baratin
1921 • Antonio Gelabert
1952 • Bruno Vicino
1973 • Giuseppe Di Grande
1973 • Guisvan Piovaccari
1992 • Alexey Lutsenko

 

Optimized for Chrome - Edge
and Opera browsers.